This demonstration page uses our WeatherBlox Daily Observations layout. Learn more.

Left ArrowRight Arrow

Hourly Observations for March 26, 2019

Temp ( °F °C ) Dew Point ( °F °C ) Humidity (%) Winds ( mph kmh ) Pressure ( in mb ) Visibility ( mi km ) Precip ( " mm )
12:51 am 00:51 Clear 57 13.9 23 -5 27 27 E 10 17 29.96 1015 10 16 N/A
1:51 am 01:51 Clear 57 13.9 23 -5 27 27 E 10 17 29.95 1014 10 16 N/A
2:51 am 02:51 Clear 54 12.2 23 -5 30 30 E 7 11 29.94 1014 10 16 N/A
3:51 am 03:51 Clear 56 13.3 22 -5.6 27 27 E 9 15 29.93 1013 10 16 N/A
4:51 am 04:51 Clear 57 13.9 21 -6.1 25 25 ESE 13 20 29.93 1014 10 16 N/A
5:51 am 05:51 Clear 55 12.8 21 -6.1 26 26 SE 7 11 29.95 1014 10 16 N/A
6:51 am 06:51 Sunny 57 13.9 22 -5.6 26 26 SE 12 19 29.98 1015 10 16 N/A
7:51 am 07:51 Sunny 61 16.1 22 -5.6 22 22 ESE 18 30 30.00 1016 10 16 N/A
8:51 am 08:51 Sunny 65 18.3 23 -5 20 20 SE 13 20 30.01 1016 10 16 N/A
9:51 am 09:51 Sunny 70 21.1 24 -4.4 18 18 SSE 8 13 30.01 1016 10 16 N/A
10:51 am 10:51 Sunny 76 24.4 27 -2.8 16 16 S 12 19 29.97 1015 10 16 N/A
11:51 am 11:51 Sunny 78 25.6 29 -1.7 16 16 S 10 17 29.95 1014 10 16 N/A
12:51 pm 12:51 Sunny 81 27.2 30 -1.1 16 16 N N/A 29.91 1013 10 16 N/A
1:51 pm 13:51 Sunny 83 28.3 30 -1.1 15 15 S 10 17 29.87 1011 10 16 N/A
2:51 pm 14:51 Sunny 83 28.3 26 -3.3 12 12 ESE 6 9 29.85 1011 10 16 N/A
3:51 pm 15:51 Sunny 83 28.3 25 -3.9 12 12 SE 3 6 29.83 1010 10 16 N/A
4:51 pm 16:51 Sunny 84 28.9 24 -4.4 11 11 N N/A 29.81 1010 10 16 N/A
5:51 pm 17:51 Sunny 83 28.3 23 -5 11 11 NNE 5 7 29.81 1010 10 16 N/A
6:51 pm 18:51 Clear 74 23.3 28 -2.2 18 18 NE 7 11 29.83 1010 10 16 N/A
7:51 pm 19:51 Clear 71 21.7 30 -1.1 22 22 NW 9 15 29.84 1011 10 16 N/A
8:51 pm 20:51 Clear 68 20 32 undefined 26 26 NW 8 13 29.86 1011 10 16 N/A
9:51 pm 21:51 Clear 65 18.3 32 undefined 29 29 WNW 9 15 29.86 1011 10 16 N/A
10:51 pm 22:51 Clear 66 18.9 34 1.1 30 30 W 9 15 29.86 1011 10 16 N/A
11:51 pm 23:51 Clear 63 17.2 33 0.6 33 33 NW 6 9 29.86 1011 10 16 N/A

Powered by AerisWeather